When you browse on this site, cookies collect data to enhance your experience and personalize the content and advertising you see.
Visit our Privacy Policy to learn more. By continuing to use the site, you agree to this use of cookies and data.
  • Em Portugal
  • Lista de países
  • Para 7 dias
  • Temperatura da água
  • Mapas de satélite
  • Mapa do tempo
  • Widgets de tempo
  • user-avatar
    Iniciar Sessão

    Previsão horária em Rakowice

    Hoje, 21 Fevereiro, Quinta-feira

    Tempo Temperatura Precipitação Vento Pressão Humidade
    00:00 +3°C° 0 mm 3 m/s 751 mmHg 83%
    01:00 +3°C° 0 mm 3 m/s 751 mmHg 85%
    02:00 +3°C° 0 mm 3 m/s 751 mmHg 85%
    03:00 +3°C° 0 mm 3 m/s 751 mmHg 86%
    04:00 +3°C° 0 mm 3 m/s 751 mmHg 86%
    05:00 +3°C° 0 mm 3 m/s 751 mmHg 86%
    06:00 +3°C° 0 mm 3 m/s 751 mmHg 87%
    07:00 +3°C° 0 mm 4 m/s 751 mmHg 87%
    08:00 +4°C° 0 mm 4 m/s 751 mmHg 82%
    09:00 +5°C° 0 mm 5 m/s 751 mmHg 78%
    10:00 +6°C° 0 mm 5 m/s 751 mmHg 73%
    11:00 +6°C° 0.3 mm 5 m/s 751 mmHg 73%
    12:00 +7°C° 0.3 mm 5 m/s 750 mmHg 72%
    13:00 +7°C° 0 mm 5 m/s 750 mmHg 73%
    14:00 +7°C° 0.2 mm 5 m/s 750 mmHg 73%
    15:00 +7°C° 0.2 mm 5 m/s 750 mmHg 74%
    16:00 +7°C° 0.2 mm 6 m/s 749 mmHg 74%
    17:00 +7°C° 0 mm 5 m/s 749 mmHg 77%
    18:00 +6°C° 0 mm 5 m/s 750 mmHg 79%
    19:00 +6°C° 0 mm 5 m/s 750 mmHg 82%
    20:00 +6°C° 0.5 mm 5 m/s 749 mmHg 84%
    21:00 +6°C° 0.5 mm 5 m/s 749 mmHg 86%
    22:00 +6°C° 0.5 mm 5 m/s 749 mmHg 89%
    23:00 +6°C° 1.3 mm 5 m/s 749 mmHg 90%

    Amanhã, 22 Fevereiro, Sexta-feira

    Tempo Temperatura Precipitação Vento Pressão Humidade
    00:00 +6°C° 1.3 mm 5 m/s 749 mmHg 92%
    01:00 +6°C° 1.3 mm 5 m/s 749 mmHg 93%
    02:00 +6°C° 0.8 mm 5 m/s 750 mmHg 93%
    03:00 +6°C° 0.8 mm 5 m/s 750 mmHg 93%
    04:00 +6°C° 0.8 mm 5 m/s 750 mmHg 94%
    05:00 +3°C° 0.4 mm 5 m/s 751 mmHg 91%
    06:00 +2°C° 0.4 mm 5 m/s 752 mmHg 89%
    07:00 +1°C° 0.4 mm 6 m/s 753 mmHg 86%
    08:00 -1°C° 0 mm 6 m/s 755 mmHg 82%
    09:00 0°C° 0 mm 5 m/s 756 mmHg 78%
    10:00 -1°C° 0 mm 5 m/s 757 mmHg 74%
    11:00 0°C° 0 mm 5 m/s 758 mmHg 66%
    12:00 0°C° 0 mm 5 m/s 759 mmHg 58%
    13:00 +1°C° 0 mm 4 m/s 759 mmHg 51%
    14:00 0°C° 0 mm 4 m/s 760 mmHg 50%
    15:00 0°C° 0 mm 4 m/s 760 mmHg 50%
    16:00 0°C° 0 mm 4 m/s 761 mmHg 50%
    17:00 0°C° 0 mm 3 m/s 761 mmHg 53%
    18:00 -1°C° 0 mm 3 m/s 762 mmHg 57%
    19:00 -2°C° 0 mm 2 m/s 763 mmHg 61%
    20:00 -2°C° 0 mm 2 m/s 763 mmHg 60%
    21:00 -3°C° 0 mm 2 m/s 763 mmHg 59%
    22:00 -3°C° 0 mm 2 m/s 764 mmHg 57%
    23:00 -3°C° 0 mm 2 m/s 764 mmHg 56%

    Depois de amanhã, 23 Fevereiro, Sábado

    Tempo Temperatura Precipitação Vento Pressão Humidade
    00:00 -3°C° 0 mm 2 m/s 764 mmHg 55%
    01:00 -3°C° 0 mm 2 m/s 764 mmHg 53%
    02:00 -3°C° 0 mm 2 m/s 764 mmHg 53%
    03:00 -3°C° 0 mm 2 m/s 764 mmHg 52%
    04:00 -4°C° 0 mm 2 m/s 764 mmHg 52%
    05:00 -4°C° 0 mm 2 m/s 764 mmHg 52%
    06:00 -4°C° 0 mm 2 m/s 764 mmHg 51%
    07:00 -4°C° 0 mm 2 m/s 764 mmHg 51%
    08:00 -3°C° 0 mm 2 m/s 764 mmHg 44%
    09:00 -2°C° 0 mm 2 m/s 765 mmHg 38%
    10:00 +1°C° 0 mm 2 m/s 765 mmHg 31%
    11:00 +2°C° 0 mm 2 m/s 765 mmHg 28%
    12:00 +3°C° 0 mm 2 m/s 764 mmHg 25%
    13:00 +4°C° 0 mm 2 m/s 764 mmHg 22%
    14:00 +4°C° 0 mm 2 m/s 764 mmHg 24%
    15:00 +4°C° 0 mm 2 m/s 763 mmHg 26%
    16:00 +5°C° 0 mm 1 m/s 763 mmHg 27%
    17:00 +2°C° 0 mm 2 m/s 763 mmHg 32%
    18:00 +1°C° 0 mm 2 m/s 763 mmHg 37%
    19:00 -2°C° 0 mm 2 m/s 763 mmHg 41%
    20:00 0°C° 0 mm 1 m/s 763 mmHg 41%
    21:00 0°C° 0 mm 1 m/s 763 mmHg 41%
    22:00 0°C° 0 mm 1 m/s 763 mmHg 41%
    23:00 +1°C° 0 mm 1 m/s 762 mmHg 40%

    24 Fevereiro, Domingo

    Tempo Temperatura Precipitação Vento Pressão Humidade
    00:00 +1°C° 0 mm 1 m/s 762 mmHg 39%
    01:00 +1°C° 0 mm 1 m/s 762 mmHg 38%
    02:00 +1°C° 0 mm 1 m/s 762 mmHg 38%
    03:00 +1°C° 0 mm 1 m/s 762 mmHg 38%
    04:00 +1°C° 0 mm 1 m/s 762 mmHg 38%
    05:00 +1°C° 0 mm 1 m/s 762 mmHg 38%
    06:00 +1°C° 0 mm 1 m/s 761 mmHg 38%
    07:00 +1°C° 0 mm 1 m/s 761 mmHg 38%
    08:00 +2°C° 0 mm 1 m/s 762 mmHg 35%
    09:00 +4°C° 0 mm 1 m/s 762 mmHg 32%
    10:00 +5°C° 0 mm 2 m/s 762 mmHg 29%
    11:00 +6°C° 0 mm 2 m/s 762 mmHg 29%
    12:00 +7°C° 0 mm 2 m/s 761 mmHg 29%
    13:00 +8°C° 0 mm 2 m/s 761 mmHg 30%
    14:00 +8°C° 0 mm 2 m/s 761 mmHg 35%
    15:00 +7°C° 0 mm 2 m/s 761 mmHg 40%
    16:00 +7°C° 0 mm 2 m/s 760 mmHg 45%
    17:00 +6°C° 0 mm 2 m/s 761 mmHg 49%
    18:00 +4°C° 0 mm 2 m/s 761 mmHg 54%
    19:00 +3°C° 0 mm 2 m/s 761 mmHg 58%
    20:00 +2°C° 0 mm 2 m/s 761 mmHg 59%
    21:00 +2°C° 0 mm 2 m/s 761 mmHg 61%
    22:00 +2°C° 0 mm 2 m/s 761 mmHg 62%
    23:00 +2°C° 0 mm 2 m/s 761 mmHg 63%

    25 Fevereiro, Segunda-feira

    Tempo Temperatura Precipitação Vento Pressão Humidade
    00:00 +2°C° 0 mm 2 m/s 762 mmHg 64%
    01:00 +2°C° 0 mm 2 m/s 762 mmHg 65%
    02:00 +2°C° 0 mm 2 m/s 762 mmHg 66%
    03:00 +2°C° 0 mm 2 m/s 762 mmHg 67%
    04:00 +1°C° 0 mm 2 m/s 762 mmHg 68%
    05:00 +1°C° 0 mm 2 m/s 762 mmHg 69%
    06:00 +1°C° 0 mm 2 m/s 762 mmHg 70%
    07:00 +1°C° 0 mm 2 m/s 762 mmHg 72%
    08:00 +3°C° 0 mm 2 m/s 762 mmHg 67%
    09:00 +5°C° 0 mm 2 m/s 762 mmHg 62%
    10:00 +6°C° 0 mm 2 m/s 762 mmHg 58%
    11:00 +8°C° 0 mm 2 m/s 762 mmHg 55%
    12:00 +9°C° 0 mm 2 m/s 762 mmHg 52%
    13:00 +12°C° 0 mm 2 m/s 761 mmHg 50%
    14:00 +12°C° 0 mm 2 m/s 761 mmHg 52%
    15:00 +10°C° 0 mm 2 m/s 761 mmHg 55%
    16:00 +10°C° 0 mm 2 m/s 761 mmHg 57%
    17:00 +9°C° 0 mm 2 m/s 761 mmHg 62%
    18:00 +7°C° 0 mm 2 m/s 760 mmHg 67%
    19:00 +6°C° 0 mm 2 m/s 760 mmHg 72%
    20:00 +6°C° 0 mm 2 m/s 760 mmHg 74%
    21:00 +5°C° 0 mm 2 m/s 760 mmHg 75%
    22:00 +5°C° 0 mm 2 m/s 760 mmHg 76%
    23:00 +5°C° 0 mm 2 m/s 759 mmHg 78%

    26 Fevereiro, Terça-feira

    Tempo Temperatura Precipitação Vento Pressão Humidade
    00:00 +5°C° 0 mm 2 m/s 759 mmHg 79%
    01:00 +4°C° 0 mm 2 m/s 759 mmHg 81%
    02:00 +4°C° 0 mm 2 m/s 759 mmHg 82%
    03:00 +3°C° 0 mm 3 m/s 758 mmHg 83%
    04:00 +3°C° 0 mm 3 m/s 758 mmHg 84%
    05:00 +3°C° 0 mm 3 m/s 757 mmHg 85%
    06:00 +3°C° 0 mm 3 m/s 757 mmHg 87%
    07:00 +2°C° 0 mm 3 m/s 757 mmHg 88%
    08:00 +4°C° 0 mm 4 m/s 757 mmHg 82%
    09:00 +5°C° 0 mm 4 m/s 756 mmHg 76%
    10:00 +7°C° 0 mm 5 m/s 756 mmHg 71%
    11:00 +8°C° 0 mm 5 m/s 756 mmHg 65%
    12:00 +9°C° 0 mm 5 m/s 756 mmHg 58%
    13:00 +12°C° 0 mm 5 m/s 755 mmHg 52%
    14:00 +12°C° 0 mm 5 m/s 755 mmHg 54%
    15:00 +12°C° 0 mm 5 m/s 754 mmHg 56%
    16:00 +12°C° 0 mm 5 m/s 754 mmHg 58%
    17:00 +10°C° 0 mm 4 m/s 754 mmHg 64%
    18:00 +8°C° 0 mm 4 m/s 754 mmHg 70%
    19:00 +8°C° 0 mm 3 m/s 754 mmHg 75%
    20:00 +8°C° 0 mm 3 m/s 754 mmHg 78%
    21:00 +7°C° 0 mm 3 m/s 754 mmHg 81%
    22:00 +7°C° 0 mm 3 m/s 754 mmHg 84%
    23:00 +7°C° 0 mm 2 m/s 755 mmHg 87%
    Mostrar mais